Theta_e
322 321 320 319 320 317 318 316 317 318 318 317 317 315 312 311 307 302 301 302 302 303 305 302 303 305 305 306 307 306 307 307 306 307 308 308 310 307 304 304 304 305 305 305 305 305 307 307 307 309 310 310 310 309 310 309 308 308 308 308 307 307 306 305 305 307 307 308 307 306 305 305 306 306
319 318 317 317 316 316 315 315 316 316 316 315 315 315 315 314 309 307 303 304 306 304 305 306 302 304 304 305 306 306 306 305 308 306 306 308 308 306 305 303 303 303 303 303 303 305 306 306 307 308 309 309 308 309 308 307 307 307 307 307 306 305 305 304 305 306 306 306 305 306 305 305 305 305
316 316 315 315 314 314 314 314 313 314 313 314 313 314 315 314 314 311 307 304 306 308 304 305 306 303 303 304 305 305 305 306 306 307 307 305 306 305 306 303 304 303 302 302 304 305 305 305 305 306 308 307 307 307 307 306 306 306 306 305 305 305 304 304 305 306 306 306 306 306 305 305 305 305
314 313 312 312 312 312 312 312 312 312 313 313 312 312 312 312 313 312 309 305 305 306 307 306 305 304 304 303 303 303 304 304 305 307 306 306 307 306 306 305 303 303 302 302 302 303 303 303 304 306 306 306 306 306 305 304 304 304 304 303 303 302 303 303 304 305 306 306 305 305 304 304 304 304
313 313 311 311 311 312 311 310 310 309 309 311 311 311 310 310 311 309 308 305 306 305 308 307 304 304 305 302 303 301 304 304 305 306 306 307 306 306 306 306 304 302 302 301 300 300 301 302 304 304 304 303 303 303 301 301 302 303 303 301 300 301 303 303 302 302 304 305 305 304 303 303 303 303
312 313 310 308 309 310 309 309 307 307 307 306 307 309 309 308 309 312 308 307 305 303 305 305 306 305 305 301 302 303 304 305 305 302 303 305 305 306 306 306 306 301 301 300 300 300 300 300 301 300 300 299 299 299 299 299 299 301 301 297 297 301 302 302 301 302 303 303 303 302 302 302 302 303
310 310 310 309 309 310 309 310 309 309 307 307 307 307 308 309 309 308 310 308 306 304 303 306 303 303 302 302 300 301 303 304 303 302 302 303 303 304 306 306 306 302 300 300 300 300 300 300 299 298 299 299 298 298 299 299 299 298 299 298 299 299 299 299 299 300 302 302 302 302 301 301 302 304
309 309 309 309 310 310 309 308 308 308 308 307 306 306 307 308 307 309 309 309 308 305 303 304 303 303 301 301 301 301 302 301 301 302 303 304 305 305 304 305 305 303 302 301 300 301 301 299 299 298 298 299 299 298 298 298 298 298 299 299 299 298 298 298 298 298 300 300 300 301 300 300 302 304
310 310 310 309 309 309 308 308 307 307 308 306 306 306 306 306 308 308 308 307 307 305 303 303 304 304 303 304 303 302 301 303 304 306 306 303 304 305 305 306 305 304 302 301 302 301 300 300 300 299 299 299 298 298 298 298 299 299 299 299 299 298 298 298 298 298 298 298 298 300 300 299 300 303
311 310 310 309 309 308 308 308 308 308 307 307 306 306 305 305 307 307 306 306 306 305 304 303 300 302 301 299 301 303 302 301 302 303 304 306 308 306 305 304 304 307 306 308 307 305 303 302 301 300 300 298 298 298 298 299 299 300 300 299 298 298 298 297 297 297 297 298 297 298 298 298 299 301
310 310 310 310 309 308 309 309 308 308 309 308 307 307 307 306 307 306 304 304 305 304 303 302 302 299 302 302 300 301 300 301 302 302 302 302 304 305 305 303 304 305 306 305 302 303 303 302 304 302 299 298 299 300 299 300 301 301 300 299 298 298 297 297 297 297 297 297 297 296 296 296 298 300
310 310 310 309 309 309 309 309 309 309 308 308 307 308 309 308 305 304 304 305 303 303 303 300 299 300 300 300 302 301 301 302 302 303 301 299 300 302 304 306 303 305 305 305 306 305 305 304 304 301 301 302 301 301 302 303 303 302 300 298 297 297 297 297 297 297 297 297 297 296 296 295 296 297
309 309 310 310 309 310 309 308 308 309 309 309 308 308 307 305 304 304 304 304 303 302 301 300 301 300 299 300 300 300 301 301 301 303 303 302 303 303 303 304 306 303 303 305 305 304 307 305 306 307 307 307 307 306 303 304 303 301 298 297 297 297 297 297 297 297 297 297 297 296 296 296 296 295
309 309 310 310 308 308 308 306 302 300 302 306 308 307 306 305 304 304 303 302 302 301 299 299 299 298 298 298 301 302 303 304 303 302 303 301 302 303 302 303 305 306 305 304 303 304 307 305 305 306 305 307 308 307 307 305 302 300 297 297 297 297 297 297 297 297 297 297 296 296 296 295 295 295
308 309 308 310 308 308 306 307 299 298 298 298 300 301 304 307 306 304 303 302 302 300 300 301 300 299 298 300 302 303 303 303 302 303 303 302 301 300 298 297 302 308 304 303 303 303 307 307 304 305 305 306 307 307 305 300 299 298 297 297 297 297 297 297 297 296 296 296 296 296 295 295 295 294
309 308 309 310 310 310 309 309 304 301 297 296 296 295 296 295 296 298 304 304 302 302 300 300 300 300 300 302 303 302 302 302 303 304 303 302 301 300 299 298 298 303 306 303 302 302 306 307 305 305 305 306 307 307 303 299 298 297 297 297 297 296 296 296 296 296 296 295 295 295 295 295 294 294
309 309 309 309 311 312 310 308 308 306 304 298 295 296 296 295 293 292 292 296 305 305 302 300 300 301 302 302 302 304 303 305 304 303 302 303 303 302 300 300 301 304 308 304 302 299 304 305 303 302 304 305 307 307 302 300 298 297 297 297 296 296 296 296 296 296 295 295 295 295 295 294 294 294
310 309 309 308 309 310 309 308 307 307 307 306 304 303 303 303 300 294 291 292 292 301 304 302 301 305 304 302 304 306 305 304 303 303 301 304 303 302 302 305 305 307 309 303 301 299 301 304 303 301 303 305 306 307 303 298 298 297 297 297 296 296 296 296 296 296 295 295 295 295 295 294 293 293
310 310 311 311 309 309 308 309 306 306 306 306 305 304 303 304 303 302 302 304 305 305 306 307 307 308 307 306 306 307 307 306 305 305 305 305 305 305 307 306 308 307 309 306 303 298 301 304 301 301 302 304 304 305 301 300 298 298 297 297 296 296 296 296 295 295 295 295 295 295 294 294 293 293
311 311 311 309 308 309 308 304 297 302 306 305 304 302 302 302 303 303 305 299 299 306 308 308 308 309 310 300 308 307 305 305 306 305 304 305 305 304 301 299 302 301 306 306 302 300 300 304 301 301 303 304 303 304 304 300 300 299 298 297 297 296 296 296 296 295 295 295 295 295 294 294 293 293
310 310 309 309 309 308 306 299 292 294 299 304 302 301 301 301 301 301 305 298 293 293 292 292 292 292 291 291 291 291 292 300 303 303 302 302 304 300 298 299 300 300 302 306 305 302 299 303 302 301 302 303 302 303 303 305 301 300 298 298 297 297 297 296 296 296 296 295 295 295 294 294 293 294
309 308 307 307 308 307 306 293 291 291 298 302 301 301 300 300 300 301 305 305 304 293 292 292 292 291 291 291 291 291 291 291 296 302 300 303 302 300 300 298 299 301 302 303 305 301 300 302 303 301 301 302 304 303 303 304 305 301 300 299 298 298 297 297 296 296 296 296 296 296 295 294 294 299
308 308 306 304 305 307 303 290 291 291 297 302 301 301 301 300 301 302 305 305 305 306 307 307 304 302 297 301 304 304 293 292 296 303 305 306 303 300 299 299 300 298 300 305 306 299 300 301 301 302 299 296 299 302 303 304 304 305 305 304 305 300 298 297 297 297 297 296 296 296 295 294 295 300
306 305 306 303 295 294 292 290 290 290 293 300 301 302 301 301 300 304 305 305 305 305 305 306 305 304 305 305 304 305 305 302 302 304 306 306 305 302 300 300 300 298 298 306 304 300 301 303 300 303 301 297 295 299 303 303 304 305 305 304 304 301 300 300 300 298 297 297 296 296 295 295 295 300
305 304 304 306 298 292 291 290 290 290 291 294 302 303 301 302 303 302 303 304 300 304 304 304 303 303 303 304 303 302 304 304 305 305 306 307 307 305 302 300 300 300 301 306 299 303 300 302 301 302 300 300 300 299 300 302 304 303 304 305 304 304 305 305 303 305 300 298 298 297 296 296 295 297
306 306 306 307 300 292 291 291 290 290 291 291 300 302 295 295 292 301 303 304 304 303 302 301 301 302 302 303 303 302 302 302 304 305 307 308 308 307 306 303 301 299 300 308 295 304 301 301 302 300 300 299 299 299 298 299 301 302 304 304 304 305 305 304 304 304 305 305 305 300 299 296 296 296
306 308 308 307 297 292 291 291 291 291 290 292 297 294 292 292 291 295 301 301 301 301 301 301 301 301 302 302 300 300 300 303 306 305 306 307 307 306 307 307 306 304 304 307 306 305 304 301 304 302 299 300 298 297 298 297 298 302 302 302 304 304 305 304 303 303 304 303 305 299 298 297 297 296
306 306 307 305 294 292 291 290 291 291 291 297 293 291 291 291 292 299 300 300 301 300 301 300 300 301 302 301 299 298 300 301 306 306 307 307 308 307 307 308 306 305 306 306 306 306 305 303 303 304 304 300 298 296 296 299 300 300 299 302 303 304 304 304 303 302 303 304 304 304 304 303 303 302
308 302 298 296 293 292 292 291 290 291 291 291 292 291 291 294 298 299 301 302 303 301 300 300 301 301 301 301 300 302 303 304 304 305 306 308 308 308 308 308 307 307 307 307 306 305 305 304 303 304 304 303 300 300 299 297 299 300 300 300 299 301 303 304 304 303 302 302 302 303 303 303 301 301
298 296 295 293 292 292 293 296 298 299 300 292 291 290 292 300 300 300 300 301 301 300 300 299 299 301 302 301 302 303 303 302 300 303 303 304 303 306 305 304 304 308 310 309 307 305 305 305 304 304 303 302 302 301 300 298 298 300 300 300 300 301 302 303 303 303 302 301 302 302 304 304 302 301
302 300 299 300 296 297 293 295 296 297 297 297 296 296 297 300 301 300 301 302 303 301 301 300 301 302 302 302 300 299 300 300 301 303 302 301 302 303 303 303 302 302 304 309 307 305 305 305 305 304 301 301 302 302 302 302 299 299 299 300 300 297 300 303 303 302 302 302 303 303 304 304 302 302
307 306 297 297 302 302 300 300 301 300 301 300 298 298 298 299 299 298 297 297 301 302 302 302 302 300 301 300 299 299 298 298 299 303 301 300 301 303 303 301 299 300 301 304 307 305 299 304 304 304 303 302 300 302 303 301 299 299 299 300 300 301 302 301 301 302 302 303 301 301 302 302 301 302
304 304 304 303 302 302 300 297 302 301 299 299 299 300 301 302 302 302 301 300 301 301 300 300 301 300 302 301 300 298 298 299 300 302 301 303 303 303 302 299 299 300 299 300 302 306 306 305 303 302 302 303 303 303 301 298 299 300 299 299 300 300 301 302 301 301 303 302 301 301 300 302 302 301
303 304 304 304 301 302 302 301 299 299 299 300 301 302 297 301 301 301 300 300 301 302 300 300 300 301 301 301 300 299 299 300 301 300 297 302 303 301 300 300 300 301 299 300 301 302 304 305 304 304 304 301 303 303 302 300 298 299 300 300 300 299 300 302 302 303 302 301 300 299 299 299 301 301
301 299 301 301 303 301 303 297 299 298 299 299 299 303 302 302 301 297 301 301 299 299 295 298 300 300 299 299 299 299 298 300 299 302 301 300 301 300 300 299 299 300 300 301 300 302 303 302 302 301 300 301 300 304 301 303 299 300 301 300 300 300 300 301 301 302 302 301 301 298 298 299 299 299
300 301 301 300 301 301 300 298 299 301 302 301 302 302 300 299 299 299 299 300 301 299 297 296 295 296 295 297 297 298 299 296 299 301 300 299 299 299 300 300 298 300 301 301 300 301 301 300 300 298 295 296 295 294 295 300 299 300 295 297 299 298 300 301 301 302 301 300 300 299 294 294 298 299
299 300 302 302 302 300 299 301 302 302 302 302 301 302 298 298 300 301 302 297 299 297 297 296 296 296 295 293 294 294 295 295 294 297 296 299 298 299 298 296 296 299 299 301 301 300 301 300 300 299 296 294 293 292 294 302 295 297 302 295 296 299 295 297 300 299 300 301 300 299 298 295 296 298
299 300 300 300 301 302 302 302 301 301 302 301 301 300 301 302 302 302 303 299 296 294 295 295 296 296 295 295 294 295 297 297 297 295 296 299 295 297 297 297 298 299 299 300 301 301 301 300 299 298 297 293 292 292 293 295 296 297 296 299 294 294 297 294 296 295 295 300 298 299 300 296 297 299
301 300 299 300 301 303 303 301 300 301 302 302 301 300 299 299 299 299 298 297 297 295 295 295 297 296 296 299 295 295 296 296 296 296 295 297 298 298 298 298 297 299 298 298 300 301 301 299 299 299 298 295 293 294 295 294 294 297 295 292 298 296 293 296 294 296 296 296 297 300 299 302 300 294
301 300 301 301 302 303 303 303 303 302 302 301 300 299 298 297 297 298 297 296 294 296 296 296 294 295 295 297 296 297 298 299 297 296 296 296 295 296 298 296 297 296 297 296 295 298 299 299 300 299 299 300 297 295 296 296 296 296 296 298 291 295 293 295 292 293 294 296 295 296 295 297 296 298
299 301 302 302 303 302 301 302 303 302 300 300 300 297 298 299 299 298 297 296 293 295 295 295 296 296 295 295 296 296 295 295 296 296 296 294 293 294 294 293 295 297 295 294 297 299 298 301 298 287 294 298 297 301 296 295 294 296 296 295 291 290 291 292 297 296 293 296 296 295 294 294 294 294
301 301 302 302 302 303 303 303 303 302 302 300 299 298 299 298 297 293 294 291 295 293 293 295 295 294 295 297 297 295 295 295 294 294 294 295 296 295 292 294 296 297 296 295 294 298 301 303 298 298 301 299 296 294 293 294 294 295 295 296 296 292 290 289 289 290 297 296 293 292 292 293 293 292
299 301 301 301 301 302 302 302 303 302 301 300 299 299 298 297 295 295 295 294 294 295 295 295 296 296 296 297 297 296 295 294 294 294 294 294 295 296 296 296 296 296 298 295 298 298 300 302 302 299 296 296 295 295 294 294 295 295 295 296 295 297 295 291 290 289 289 288 289 291 292 291 290 288
301 301 302 302 301 302 302 302 301 300 300 300 298 298 296 295 295 296 295 296 296 296 296 296 296 296 296 296 296 295 295 295 295 294 294 294 294 296 296 296 295 296 296 296 296 297 298 297 297 298 296 295 296 295 294 294 295 295 296 294 294 294 295 296 295 290 290 290 289 288 288 288 288 288
300 301 301 300 300 301 302 302 301 300 299 298 297 296 295 294 295 296 296 295 296 296 295 295 295 296 296 296 296 295 295 294 294 294 294 295 294 295 295 295 295 295 295 296 296 295 296 297 298 297 295 296 295 295 294 293 294 294 294 293 292 294 295 295 295 295 296 295 289 288 288 288 288 288
Wind_Speed
5 4 6 5 4 3 3 3 2 3 3 4 5 7 8 8 7 7 8 8 7 8 7 5 5 3 3 3 2 3 1 2 3 0 1 1 0 4 5 5 6 7 7 7 8 9 9 10 10 11 12 12 13 13 14 15 15 16 17 18 19 19 19 19 20 21 22 23 23 23 25 27 27 27
4 4 4 4 3 3 3 3 2 2 3 4 5 6 6 7 9 7 8 6 7 6 6 4 5 5 4 3 2 1 1 2 5 1 1 1 2 5 5 4 5 6 7 7 8 8 8 10 11 12 12 13 13 14 14 15 15 16 17 17 18 17 18 19 20 21 22 23 23 23 25 26 27 27
4 5 5 4 4 4 3 3 3 2 3 3 4 4 5 5 7 7 7 6 4 3 7 5 3 5 5 3 3 2 1 1 3 1 1 1 4 7 2 2 5 6 7 8 8 10 9 9 10 11 12 13 13 14 14 15 15 16 16 15 16 17 18 19 20 22 23 23 23 23 24 26 27 28
5 6 6 5 4 4 4 4 3 3 2 1 2 3 4 4 4 4 5 7 3 3 3 5 5 5 4 4 3 3 2 3 6 1 1 1 4 2 0 1 2 5 7 8 8 9 9 9 10 11 11 12 13 14 14 14 14 14 14 14 14 15 16 18 19 21 23 23 23 23 23 25 26 27
5 6 6 6 5 5 5 4 3 3 3 2 2 1 3 3 3 4 5 5 5 4 2 4 5 5 4 5 3 3 3 2 2 3 1 1 1 1 1 1 2 3 7 8 8 8 9 9 10 10 11 11 12 12 12 12 12 13 14 14 15 15 16 18 18 19 21 22 23 23 23 24 26 27
4 5 6 6 5 4 5 5 4 4 3 3 3 3 2 3 3 3 5 5 5 7 5 5 5 5 5 5 5 4 3 2 1 1 0 2 1 1 2 2 1 1 6 8 8 9 9 9 9 9 10 10 11 11 12 12 13 13 13 14 15 15 16 18 18 19 21 22 22 22 23 23 25 27
5 6 6 6 5 4 5 5 4 4 4 3 3 3 2 2 3 4 4 5 6 8 7 7 7 6 6 5 5 3 2 2 1 2 1 2 1 1 2 2 3 2 4 7 8 9 9 9 9 9 10 10 11 12 12 13 13 13 13 14 15 16 16 17 17 18 21 22 22 22 22 22 25 27
6 7 7 6 6 6 6 5 4 4 4 4 4 4 3 3 4 4 4 6 6 7 7 7 7 6 5 4 2 1 3 2 2 2 3 3 3 3 2 2 3 3 5 7 8 8 8 8 9 9 10 10 11 12 12 13 13 13 13 14 15 16 16 17 18 18 19 18 20 21 21 22 24 26
7 7 7 7 7 7 6 6 5 4 5 4 4 4 4 4 4 3 4 4 5 6 6 6 4 3 4 1 0 1 2 1 2 2 3 1 3 4 4 2 2 5 7 7 6 7 8 8 8 9 10 10 10 11 12 13 13 13 13 13 15 16 16 16 17 18 18 19 19 21 22 22 23 26
6 7 7 7 7 7 7 6 5 5 6 5 5 5 4 4 4 4 3 4 5 6 6 6 5 4 3 2 2 1 2 3 3 3 3 2 1 2 4 3 2 3 3 4 5 5 6 6 9 9 9 10 10 10 12 12 12 12 12 13 14 15 16 16 17 18 18 19 19 19 20 21 22 25
6 6 6 7 7 7 7 7 7 7 7 6 6 6 5 3 4 4 5 5 5 6 6 5 4 5 2 1 3 1 0 1 1 3 4 3 4 3 2 3 2 4 5 5 2 5 7 9 8 9 10 9 9 10 11 12 11 10 11 13 14 15 16 17 18 18 19 19 19 18 18 19 20 22
6 6 6 7 7 7 7 8 8 8 7 6 6 3 3 4 5 5 5 4 5 5 5 5 4 3 3 3 1 1 2 3 3 1 2 4 5 5 4 2 3 3 5 6 5 3 5 6 7 10 11 9 7 9 9 9 8 10 12 13 14 16 16 17 18 19 19 19 18 18 18 19 19 20
6 6 5 6 6 6 7 9 8 8 6 6 6 4 4 5 5 4 4 4 4 4 5 4 3 4 4 4 3 3 3 2 2 0 1 3 3 4 5 3 0 3 5 6 6 5 5 6 7 6 6 6 7 6 7 6 9 13 14 15 15 16 16 17 18 18 19 19 18 18 18 19 19 19
6 6 5 5 8 8 8 9 9 8 7 7 5 5 5 5 4 4 5 4 4 4 5 5 5 5 5 5 5 4 2 0 1 2 2 3 4 4 5 3 1 1 3 6 6 6 4 6 7 7 7 6 6 7 7 9 10 12 14 14 15 15 16 16 17 18 18 19 19 18 18 19 19 19
7 6 6 6 8 8 7 7 8 7 7 6 3 5 5 3 6 6 5 5 5 5 5 4 5 5 6 6 5 3 1 2 3 2 2 3 4 4 5 6 4 2 4 5 6 7 5 5 7 7 7 7 7 7 7 10 12 13 14 14 15 15 16 16 17 17 18 19 19 18 18 19 19 19
7 7 7 6 5 6 7 7 7 6 5 5 3 4 5 3 2 3 3 6 6 6 5 5 6 6 6 5 4 3 2 3 4 3 3 3 3 4 5 5 5 3 0 5 6 7 5 4 6 7 7 7 7 7 8 10 11 13 14 14 15 15 16 16 16 16 17 18 19 18 18 19 19 19
8 8 7 6 5 5 7 6 7 7 7 4 4 3 5 4 6 6 2 3 4 6 6 6 6 6 4 4 4 4 3 2 4 3 4 2 3 4 5 5 6 5 2 5 5 7 6 4 7 7 7 7 7 7 6 10 12 12 13 14 15 15 15 16 16 15 16 17 19 19 18 19 20 20
9 9 9 8 6 5 7 6 7 7 7 6 5 4 5 6 6 5 4 5 4 4 5 5 5 3 3 4 3 3 3 4 4 3 4 3 4 4 5 7 7 7 3 4 4 7 5 5 6 7 8 8 8 7 8 10 10 12 13 14 14 15 15 15 16 16 15 16 18 19 19 18 19 20
9 9 8 7 7 7 7 6 7 7 6 5 4 5 5 6 6 7 7 6 6 5 4 4 4 2 4 4 3 2 3 3 3 3 4 4 4 5 6 8 7 6 2 1 3 7 8 5 6 7 8 8 8 8 8 7 11 12 13 13 13 15 15 15 16 16 15 15 17 18 18 18 18 20
7 8 8 8 8 6 7 8 9 6 5 5 5 6 6 6 4 3 3 2 3 3 3 4 4 3 1 3 2 1 2 2 2 3 3 3 4 5 5 5 4 6 1 1 4 6 8 6 6 7 7 8 8 8 8 9 10 12 13 13 13 14 14 15 15 16 16 15 15 16 17 18 19 19
7 6 8 8 7 7 6 9 11 9 7 6 7 7 6 4 3 4 3 2 3 4 5 7 6 5 5 3 3 3 3 3 2 3 4 6 4 5 6 5 4 4 5 2 3 5 7 6 7 7 6 7 8 7 9 10 10 11 12 11 12 12 14 16 15 15 16 16 15 14 16 17 20 21
7 7 8 7 7 7 7 12 11 11 8 6 7 6 6 5 5 4 3 2 3 5 5 6 6 6 6 7 7 8 8 7 6 5 6 5 3 6 5 6 5 6 5 1 2 5 6 8 6 8 8 7 5 6 8 9 9 10 10 11 12 12 14 15 16 14 14 15 15 14 15 15 18 14
6 6 8 9 7 8 8 13 12 12 10 7 7 8 7 7 7 5 4 4 5 5 5 4 4 5 7 7 6 6 10 10 10 8 7 5 5 6 6 6 6 6 4 3 3 5 6 7 7 7 8 9 7 5 8 9 10 10 10 12 12 11 13 14 15 13 12 15 16 15 14 14 14 11
5 5 6 9 10 7 10 13 13 13 12 8 7 7 8 7 7 5 4 4 5 6 6 4 3 4 3 3 4 4 5 6 8 8 7 6 6 6 6 6 5 6 6 2 4 4 6 6 7 7 6 9 10 10 9 11 11 10 10 11 11 13 13 13 12 13 11 13 15 14 14 15 13 11
7 7 7 7 11 12 11 12 13 13 14 11 7 7 7 8 4 3 3 4 5 6 5 4 4 5 5 4 4 4 4 4 5 6 6 6 6 6 6 6 6 6 6 1 6 4 6 7 8 7 7 7 8 11 11 11 9 9 10 10 11 11 10 10 10 11 12 13 12 13 15 16 14 11
7 7 7 7 11 14 12 13 13 14 14 13 7 8 11 6 7 5 4 3 3 4 4 5 6 6 6 6 6 5 5 4 4 5 5 6 6 6 6 6 7 7 7 3 6 4 6 7 7 8 7 7 9 11 12 11 11 11 9 9 10 10 10 10 10 11 11 10 10 12 14 16 13 14
7 6 7 6 11 14 14 13 14 14 14 10 9 11 10 9 7 3 4 3 3 4 4 5 6 7 7 6 6 6 6 5 4 4 4 4 4 5 6 7 6 7 8 5 4 5 5 7 7 6 7 7 8 10 11 12 12 11 10 11 11 10 10 9 10 10 10 10 10 13 12 11 14 15
5 5 6 7 13 14 14 14 14 14 12 9 13 13 11 8 6 4 4 5 5 5 5 6 7 7 6 5 5 5 5 4 3 4 4 4 5 5 5 6 7 8 8 8 7 6 6 7 8 7 6 6 7 9 11 11 11 10 11 11 9 10 9 9 10 10 10 11 10 10 10 10 11 12
7 9 9 9 13 13 14 15 13 9 11 14 12 12 10 7 5 6 7 7 6 7 8 7 6 6 6 5 4 3 3 3 4 5 5 5 5 5 5 5 6 6 5 5 6 6 6 6 7 7 6 5 6 8 9 11 11 9 9 11 11 11 9 9 10 10 10 10 10 10 10 10 11 11
9 8 8 11 11 11 10 8 6 7 9 13 11 8 7 6 7 7 7 7 7 7 7 7 6 7 5 4 3 2 3 4 5 4 5 6 7 5 5 6 7 7 6 5 5 5 5 6 6 6 6 7 7 8 10 11 10 9 7 8 10 10 8 9 10 10 10 10 10 11 10 9 11 12
5 6 7 6 8 6 12 10 8 8 5 5 6 6 7 7 6 6 7 8 7 8 7 7 7 6 4 2 3 5 5 5 5 5 5 5 5 4 4 5 6 6 5 3 3 4 5 5 4 4 6 7 7 8 9 8 9 9 9 8 9 10 10 10 10 10 10 10 9 9 10 10 11 12
6 5 6 7 6 5 5 5 4 4 4 5 5 5 6 6 6 7 5 5 6 6 6 6 5 4 4 5 6 5 5 5 5 4 3 4 5 5 4 5 6 6 6 6 4 4 4 4 4 4 5 6 7 7 8 9 10 9 9 8 8 9 9 9 10 10 10 10 9 9 10 10 11 11
5 5 6 5 6 6 6 4 6 5 4 5 5 6 6 6 6 6 7 8 8 7 6 7 6 6 6 6 5 5 5 5 4 2 3 4 5 4 4 6 7 6 7 6 6 3 4 4 4 4 5 6 7 7 6 8 10 10 9 8 8 8 9 8 8 9 10 9 9 9 10 10 10 11
7 8 7 7 6 7 7 6 5 4 5 6 7 7 8 7 6 6 7 7 7 7 7 7 7 7 7 6 5 5 5 4 4 4 5 5 4 5 5 6 7 6 5 7 7 6 4 3 3 5 7 6 7 7 6 6 9 10 8 8 7 7 8 8 8 8 8 8 9 10 10 10 11 11
6 5 6 7 8 7 6 4 6 6 6 5 5 7 7 6 6 5 6 7 7 7 4 6 7 6 6 6 5 5 5 6 5 4 4 4 4 5 6 6 6 6 5 5 6 5 4 5 5 6 6 5 5 5 8 6 6 7 7 7 6 6 7 8 9 7 7 8 8 8 9 9 10 11
6 6 6 6 6 6 6 4 7 7 7 7 6 7 4 4 6 6 7 7 7 6 6 5 5 5 5 6 6 6 6 6 5 4 4 4 4 5 5 6 4 5 4 5 5 4 4 4 4 5 6 7 6 7 2 8 5 4 4 5 5 4 6 8 8 7 7 7 7 8 7 7 9 11
6 7 8 8 7 7 5 7 6 6 7 7 7 6 5 4 6 7 7 6 6 5 6 5 5 4 4 4 6 4 5 4 3 4 3 4 4 5 5 5 5 5 4 4 3 3 2 4 4 5 7 6 8 8 7 2 5 7 5 3 5 5 4 6 7 6 7 6 8 8 6 5 7 8
5 7 7 6 7 7 6 6 6 6 6 6 6 6 6 7 7 6 4 5 5 5 5 5 5 5 5 5 4 4 3 3 3 3 3 4 3 3 4 5 5 4 3 3 3 3 2 4 5 5 6 6 8 9 7 3 2 3 8 4 4 4 4 4 5 5 5 6 8 8 6 5 6 6
7 7 7 7 7 7 6 6 6 6 7 6 6 6 6 6 5 4 5 5 5 5 5 6 5 5 5 6 4 3 3 3 3 3 3 3 4 5 5 4 4 3 2 3 4 4 4 6 5 5 5 5 5 5 4 5 5 2 5 8 4 3 2 3 4 4 4 5 6 7 6 6 6 6
7 7 7 7 6 6 6 5 6 6 5 5 5 5 5 5 6 6 5 5 4 6 5 4 4 5 3 3 3 3 4 6 5 3 3 3 3 4 5 4 4 2 2 2 3 6 7 7 4 4 5 5 5 3 3 4 5 4 2 6 7 2 2 2 2 4 4 5 5 6 7 6 7 5
7 7 7 6 5 5 5 6 5 4 4 4 5 6 6 6 6 6 6 4 4 4 4 4 4 5 4 3 3 4 4 4 3 3 3 3 3 3 3 4 3 2 3 3 5 7 8 5 2 3 3 5 3 4 3 4 5 4 1 2 7 4 2 2 2 2 3 6 6 6 7 8 8 6
6 6 5 5 6 6 5 5 5 5 5 5 5 5 6 5 4 4 3 4 6 4 4 4 4 4 4 4 4 4 5 4 3 3 3 3 3 3 3 4 4 3 3 4 4 6 5 3 3 4 4 3 2 3 5 6 7 6 3 0 2 8 9 5 2 3 5 5 5 6 7 8 8 6
6 5 5 5 5 5 5 5 5 5 5 5 5 5 3 3 3 4 4 4 4 5 5 5 5 5 5 5 4 4 4 4 4 4 3 3 3 3 4 4 4 3 4 4 6 5 4 2 2 3 2 3 3 3 5 5 4 4 3 1 1 1 3 7 7 7 7 7 6 5 5 5 6 7
6 6 5 5 5 6 6 5 5 5 5 4 4 3 3 3 4 4 4 5 5 5 5 4 4 4 4 4 4 4 4 4 4 4 3 3 3 4 4 3 3 3 3 4 4 4 3 2 1 1 3 3 2 3 4 4 5 4 3 2 1 0 0 3 4 5 5 8 9 6 5 5 5 3
5 5 4 4 4 4 5 5 5 5 5 4 3 3 3 4 4 4 4 4 4 4 4 4 4 4 4 4 4 5 4 6 5 3 3 3 3 3 3 3 3 3 4 3 4 5 4 4 2 1 2 3 3 3 3 3 4 4 3 2 1 0 0 0 1 1 2 2 7 8 7 7 5 4
Wind_Direction
183 197 191 210 191 176 171 190 195 198 201 215 210 212 215 211 211 186 205 202 200 182 189 180 163 175 163 173 180 213 249 72 292 330 263 265 262 30 329 329 327 328 332 337 328 328 335 338 337 336 339 339 339 335 332 333 331 329 330 332 332 330 327 327 327 329 332 334 333 331 332 334 333 331
184 181 183 192 180 147 171 163 163 174 191 199 209 215 225 225 231 213 211 204 193 175 179 201 160 174 173 176 193 195 208 80 280 353 340 291 27 340 290 318 323 328 329 331 328 328 333 334 334 335 335 337 337 335 334 332 329 327 330 330 328 326 326 326 327 329 331 332 330 329 331 333 333 331
177 176 172 170 150 144 144 143 147 153 180 195 201 213 219 224 237 234 222 230 154 190 174 177 169 157 166 184 172 183 217 109 296 283 320 338 3 293 194 310 333 328 325 327 328 336 337 328 325 327 330 335 334 334 332 329 326 327 326 324 323 324 324 324 326 329 330 329 328 328 331 331 332 332
179 168 163 160 148 146 150 150 149 149 142 166 192 201 202 207 217 233 227 249 166 166 157 158 158 156 160 193 198 174 180 170 233 234 212 19 286 261 324 165 328 323 320 321 324 331 330 324 326 330 330 333 333 332 326 322 322 322 319 323 321 320 319 322 324 326 327 327 328 328 326 329 329 330
176 172 159 150 140 152 155 145 145 141 133 135 140 167 198 200 180 207 215 227 134 135 120 155 165 160 185 185 202 208 196 192 182 205 118 309 316 303 293 307 164 315 317 316 323 326 324 324 326 330 331 330 326 322 318 317 319 317 321 323 320 316 317 322 322 322 325 327 329 327 325 327 330 330
176 157 149 146 146 159 148 142 146 140 140 145 147 138 174 185 173 199 210 208 169 156 163 177 174 178 200 215 189 209 218 191 238 260 163 200 257 335 321 300 20 64 309 315 319 321 320 320 322 325 328 324 319 317 317 318 316 317 319 318 316 315 319 321 322 323 326 328 329 328 327 326 331 331
160 160 154 151 149 148 143 133 116 118 121 116 111 115 132 141 155 176 206 179 172 163 170 177 182 191 192 219 190 198 234 272 310 301 319 319 313 316 332 300 302 125 305 313 317 314 312 315 322 325 321 320 319 318 317 314 313 315 316 316 316 319 322 323 322 322 325 328 328 328 326 327 331 332
165 166 159 154 154 156 148 142 133 126 122 125 125 127 134 155 164 173 183 191 166 171 165 186 198 185 187 205 205 263 261 270 277 302 313 293 319 348 329 307 303 359 317 304 296 298 308 317 318 319 317 319 320 315 310 309 310 314 316 318 319 321 323 323 322 322 323 324 325 326 329 330 330 334
173 171 170 158 159 161 154 147 148 141 138 140 148 153 159 164 154 159 173 168 162 165 178 176 191 178 194 129 4 325 294 272 253 241 250 304 344 359 349 311 306 283 260 255 280 317 319 306 314 315 313 313 312 307 305 308 312 314 316 317 318 320 320 321 322 324 325 326 327 329 331 330 329 332
173 175 169 161 163 167 163 157 146 150 159 165 171 168 171 160 150 138 153 175 175 175 175 168 173 194 194 189 232 195 329 341 330 334 319 264 175 2 358 338 326 321 336 344 344 320 302 321 317 301 302 303 298 301 304 306 307 309 312 316 319 319 321 323 325 326 327 328 330 331 330 328 327 332
173 175 167 163 167 170 166 159 165 169 174 179 178 178 168 147 134 162 185 182 179 181 172 170 179 177 167 213 205 138 359 293 298 327 321 332 3 2 4 333 317 332 337 343 271 279 293 295 292 303 290 287 287 292 298 297 297 305 319 324 321 321 324 327 328 328 328 330 331 331 328 325 325 329
173 175 172 171 170 173 169 173 177 178 179 177 182 171 147 146 170 188 182 181 180 174 176 182 175 168 169 187 222 221 232 220 201 214 321 326 338 340 335 335 323 337 330 334 335 293 278 286 260 250 255 242 263 282 287 302 305 324 329 324 323 325 328 329 329 329 329 329 330 330 327 326 325 327
173 173 170 170 171 174 180 188 180 185 171 171 179 152 173 179 196 201 187 181 180 174 179 175 171 181 194 201 207 225 231 261 343 24 280 289 306 320 322 354 17 324 325 326 325 332 340 320 322 323 329 350 326 325 300 312 337 334 328 326 326 327 328 328 328 328 327 327 329 331 329 328 327 328
171 172 169 168 172 179 184 189 189 176 172 181 184 166 185 192 208 202 193 192 190 185 190 193 181 193 205 202 210 230 234 343 262 259 259 296 326 320 329 314 28 280 311 327 330 333 333 317 318 336 339 349 333 343 345 353 328 321 322 325 326 326 327 327 327 326 327 327 329 332 332 331 331 330
171 170 175 177 184 186 187 190 173 163 172 186 181 163 186 194 206 198 196 197 191 195 201 186 190 204 208 206 208 220 235 223 238 261 271 292 312 329 330 330 333 128 342 325 320 319 326 309 319 334 346 349 344 343 346 328 320 321 323 323 325 326 327 327 326 326 326 327 329 334 335 333 334 332
172 174 178 185 178 193 191 175 165 171 186 191 112 126 167 173 206 263 230 198 190 196 195 193 206 213 217 205 193 202 222 232 226 229 256 275 296 310 315 317 314 332 310 314 317 314 317 314 320 327 343 340 345 331 306 311 324 322 321 323 326 328 327 325 325 326 327 327 330 334 336 334 335 335
177 178 181 184 189 173 164 164 173 174 179 154 121 134 174 183 169 163 148 286 254 189 200 205 212 221 218 199 202 203 224 248 264 255 255 251 274 296 298 304 310 315 322 306 313 313 306 336 340 337 343 343 338 326 337 333 321 321 321 324 326 326 324 324 325 328 329 329 331 333 336 334 334 334
181 183 185 186 185 174 181 185 177 182 180 178 173 184 198 199 176 179 185 196 238 260 233 226 231 203 185 215 198 186 214 244 257 269 278 294 294 296 306 313 299 296 283 302 322 298 319 357 333 335 344 340 329 324 327 309 317 324 325 322 321 322 324 325 326 329 332 332 331 332 333 333 332 332
182 181 184 183 191 176 181 177 169 177 182 183 188 201 202 205 192 192 193 199 199 202 227 241 245 230 202 225 218 195 217 242 269 289 299 315 306 297 290 275 257 268 200 239 286 312 320 339 327 331 336 333 323 335 326 326 321 321 319 318 319 324 325 327 328 329 333 333 331 330 331 330 330 328
180 178 177 183 196 179 184 145 156 176 177 185 197 206 201 195 191 209 227 359 360 311 281 256 257 255 309 356 313 309 267 248 242 247 250 247 245 257 275 289 318 308 122 207 287 300 314 328 314 315 318 320 320 329 338 340 318 313 314 315 319 324 327 329 330 330 331 331 330 329 329 328 326 322
178 180 182 188 195 182 188 151 163 155 172 198 201 204 196 186 196 226 216 165 217 255 268 276 288 296 290 265 247 232 240 253 275 261 256 252 239 266 286 297 306 320 326 207 237 292 299 325 321 312 309 313 305 318 337 337 324 306 297 304 321 325 330 330 331 329 325 326 328 329 329 326 325 313
182 186 180 186 192 186 187 151 167 161 175 203 198 196 190 195 215 227 213 189 201 192 233 237 241 245 252 252 237 225 214 203 215 228 246 280 284 281 289 301 315 317 299 304 167 281 301 323 319 317 313 285 259 302 327 324 326 327 332 335 325 332 334 327 324 323 322 324 327 331 330 326 323 323
183 175 185 193 204 203 162 156 167 170 184 206 199 199 201 209 215 217 197 214 228 227 226 204 190 218 221 230 232 214 199 202 206 227 249 269 262 281 294 304 307 305 324 109 172 294 317 322 328 324 324 328 328 317 319 324 338 341 344 343 340 341 326 321 315 321 321 323 325 329 329 329 327 334
180 178 187 189 200 199 151 167 171 179 190 201 199 196 208 210 221 210 209 232 250 251 251 251 207 238 218 222 232 234 196 195 208 223 232 243 253 265 277 286 294 298 310 122 174 289 300 300 310 326 315 320 323 327 321 330 333 343 348 340 339 341 332 326 330 329 325 323 323 325 329 331 333 336
179 186 195 205 181 183 171 173 179 184 195 204 199 195 203 208 175 135 216 215 217 247 246 244 242 245 248 240 245 240 226 215 203 215 223 229 236 248 265 279 283 294 300 37 154 287 300 313 307 314 319 309 307 319 329 322 330 341 346 334 337 341 335 333 332 336 338 329 328 330 332 329 325 334
192 193 189 205 174 175 174 180 182 190 194 203 210 211 214 194 153 190 222 223 204 227 235 242 244 246 250 252 254 256 249 237 210 215 220 216 227 231 245 263 278 291 300 109 159 280 293 296 307 311 310 311 316 322 322 328 335 343 339 339 338 336 336 336 337 341 339 337 335 340 320 312 327 337
192 187 185 184 155 174 179 182 187 192 197 189 215 218 206 213 193 202 237 225 225 233 235 238 248 248 248 253 258 257 250 234 214 220 226 224 224 233 238 245 250 265 278 282 201 252 261 276 285 284 300 309 306 318 323 331 333 335 337 346 338 338 342 337 338 339 337 335 332 324 315 337 344 337
161 171 190 184 166 177 183 188 190 195 186 199 210 216 210 195 178 214 226 231 237 239 244 239 242 247 250 256 260 255 249 244 217 237 245 247 233 234 239 232 236 245 258 269 271 256 253 267 279 276 276 291 302 314 321 322 326 333 335 339 331 340 340 340 339 338 340 340 335 339 345 349 353 346
192 201 191 166 167 180 185 192 194 192 198 212 214 211 204 172 195 208 225 228 226 233 237 242 243 248 252 257 267 281 275 264 254 246 239 233 234 235 240 246 248 245 233 246 256 254 247 252 270 283 277 270 278 297 309 320 323 329 339 327 336 341 334 340 338 343 342 338 340 339 351 354 357 349
186 182 169 162 166 174 181 175 185 198 205 209 209 198 182 203 209 210 215 226 223 234 236 234 242 253 258 250 239 240 258 262 255 248 257 262 254 243 249 258 249 234 228 228 244 252 249 251 261 273 279 273 275 293 312 319 321 328 327 332 332 320 337 340 342 344 345 340 335 341 352 1 5 355
169 158 161 169 171 169 177 186 188 200 170 155 180 195 198 212 211 205 215 221 226 231 236 241 248 251 251 254 236 247 235 245 247 235 248 257 265 264 261 258 264 270 264 220 218 240 254 251 253 255 266 285 296 303 319 313 311 319 332 339 336 338 335 334 342 344 346 335 332 346 355 3 8 8
171 156 130 127 154 149 155 180 180 190 189 193 176 191 196 208 214 220 233 253 249 248 243 251 249 248 240 246 249 241 241 244 246 228 237 246 256 251 246 246 252 260 268 272 250 187 210 231 240 242 250 268 282 299 306 310 315 324 325 338 334 336 335 339 338 344 343 331 342 352 0 5 9 11
124 143 163 168 162 176 181 182 193 183 181 199 202 202 209 213 214 214 213 219 227 229 225 232 236 243 244 247 243 245 254 253 249 203 232 230 244 239 232 248 266 271 279 285 289 250 208 213 212 245 264 260 254 265 283 305 323 328 330 332 335 332 339 340 340 339 334 336 347 348 359 7 12 12
169 181 185 187 187 187 191 189 189 184 190 202 206 208 203 210 211 212 214 222 230 223 223 233 234 240 245 251 247 252 258 260 244 220 224 236 223 230 230 239 249 252 255 277 284 292 276 232 241 241 236 238 241 240 244 271 315 324 329 329 330 330 331 332 334 330 335 341 343 347 356 3 11 13
186 177 188 191 197 193 194 193 197 196 203 211 217 219 200 201 207 211 223 226 222 218 219 226 237 239 236 246 253 257 258 259 254 224 208 228 228 236 241 247 253 255 261 273 287 297 302 298 296 296 281 264 262 218 209 243 312 315 321 321 328 326 324 329 326 326 335 345 352 352 352 354 9 11
188 192 196 198 201 195 195 198 204 206 215 212 221 222 215 205 199 205 220 219 215 212 217 220 223 225 226 233 242 247 249 248 253 239 214 218 227 236 236 240 251 259 265 268 287 309 315 307 299 305 307 307 305 298 288 200 231 307 309 310 321 322 319 320 318 318 337 349 353 356 353 350 3 11
190 194 201 203 199 196 206 202 201 209 213 218 220 223 215 216 209 214 220 204 213 219 221 217 219 215 214 217 236 241 242 234 248 237 233 227 227 227 231 232 230 241 251 269 290 303 296 299 298 298 307 308 308 309 315 124 236 249 279 295 306 320 325 313 314 329 343 340 347 352 346 340 352 14
194 185 194 196 204 210 210 210 199 212 219 223 218 219 228 233 235 224 189 186 208 213 220 224 227 215 218 212 224 238 233 230 243 251 243 227 219 223 223 231 221 215 243 270 280 282 289 305 309 310 304 306 307 306 315 336 304 192 206 262 299 315 310 312 321 339 336 344 343 336 325 336 338 357
196 187 191 203 205 211 207 206 209 214 220 217 217 227 231 235 228 218 207 215 208 216 223 228 230 223 221 219 222 235 240 232 230 234 234 231 225 230 226 222 222 199 221 258 273 278 288 306 315 312 308 305 301 312 321 314 302 341 166 199 278 302 319 333 324 330 335 342 340 327 332 338 317 219
191 194 200 206 210 207 213 210 215 218 214 208 213 222 225 225 230 230 224 211 215 221 228 231 238 240 232 230 227 232 238 238 239 245 242 239 228 233 235 225 219 215 220 251 269 284 300 316 316 297 307 303 309 312 297 285 284 276 238 172 207 272 336 327 325 329 335 346 327 332 341 345 351 4
188 194 203 203 203 200 206 216 215 208 208 208 218 227 233 234 234 231 227 223 217 221 227 228 226 226 235 230 223 224 238 238 231 239 241 240 238 233 228 227 220 211 242 259 272 285 299 327 64 67 284 278 273 267 252 259 282 318 355 132 169 189 198 271 325 325 341 333 340 346 345 349 343 345
186 194 189 193 199 204 206 212 211 210 211 204 213 221 227 231 234 226 236 232 235 229 231 227 223 224 229 232 228 221 233 245 252 245 235 242 239 209 201 223 234 208 227 260 277 288 319 107 159 206 243 242 251 263 286 304 314 317 342 18 116 145 112 85 47 334 5 13 7 4 350 345 346 353
192 197 192 191 194 198 204 204 199 199 202 202 206 210 215 215 222 211 225 226 222 222 225 226 223 222 227 225 223 223 231 238 248 254 249 234 231 226 205 210 226 233 234 253 278 288 296 256 250 253 251 247 255 264 279 302 306 308 314 345 48 18 110 110 93 105 88 56 33 27 11 350 338 350
195 199 200 187 189 198 202 199 194 193 195 193 196 200 211 219 221 223 225 225 223 225 223 231 232 231 230 231 227 224 229 243 248 249 244 240 219 220 231 223 216 228 245 261 274 281 289 279 253 274 275 273 270 267 278 287 297 320 328 359 358 313 225 151 151 152 141 86 55 61 53 24 15 7
192 195 187 187 191 196 200 198 194 189 185 187 193 206 209 216 227 222 221 224 230 229 231 233 233 232 226 226 222 225 231 229 243 248 241 233 218 210 225 232 230 219 236 249 271 284 292 304 291 227 265 270 262 264 276 287 304 314 309 317 299 287 306 354 320 250 290 104 62 41 33 39 59 104